When you browse on this site, cookies collect data to enhance your experience and personalize the content and advertising you see.
Visit our Privacy Policy to learn more. By continuing to use the site, you agree to this use of cookies and data.
  • In Hungary
  • List of Countries
  • For 7 days
  • Water Temperature
  • Satellite Maps
  • Weather Map
  • News
  • Weather Widgets
  • user-avatar
    Login

    Hourly Weather Zerniki

    Today, 17 December, Monday

    Time Temperature Precipitation Wind Pressure Humidity
    00:00 -4°C° 0 mm 2 mps 756 mmHg 86%
    01:00 -4°C° 0 mm 2 mps 756 mmHg 84%
    02:00 -4°C° 0 mm 2 mps 756 mmHg 84%
    03:00 -3°C° 0 mm 2 mps 756 mmHg 83%
    04:00 -3°C° 0 mm 2 mps 756 mmHg 82%
    05:00 -3°C° 0 mm 2 mps 756 mmHg 82%
    06:00 -3°C° 0 mm 2 mps 757 mmHg 83%
    07:00 -3°C° 0 mm 2 mps 757 mmHg 85%
    08:00 -1°C° 0 mm 1 mps 757 mmHg 83%
    09:00 -1°C° 0 mm 1 mps 757 mmHg 82%
    10:00 -1°C° 0 mm 1 mps 758 mmHg 81%
    11:00 0°C° 0 mm 1 mps 758 mmHg 79%
    12:00 0°C° 0 mm 1 mps 758 mmHg 77%
    13:00 0°C° 0 mm 1 mps 758 mmHg 75%
    14:00 0°C° 0 mm 1 mps 759 mmHg 78%
    15:00 -1°C° 0 mm 1 mps 759 mmHg 81%
    16:00 -1°C° 0 mm 1 mps 759 mmHg 84%
    17:00 -2°C° 0 mm 1 mps 759 mmHg 84%
    18:00 -2°C° 0 mm 1 mps 760 mmHg 85%
    19:00 -2°C° 0 mm 1 mps 760 mmHg 85%
    20:00 -2°C° 0 mm 1 mps 761 mmHg 85%
    21:00 -2°C° 0 mm 1 mps 761 mmHg 86%
    22:00 -2°C° 0 mm 1 mps 761 mmHg 86%
    23:00 -2°C° 0 mm 1 mps 761 mmHg 86%

    Tomorrow, 18 December, Tuesday

    Time Temperature Precipitation Wind Pressure Humidity
    00:00 -2°C° 0 mm 1 mps 762 mmHg 87%
    01:00 -2°C° 0 mm 1 mps 762 mmHg 87%
    02:00 -2°C° 0 mm 1 mps 762 mmHg 88%
    03:00 -2°C° 0 mm 1 mps 762 mmHg 88%
    04:00 -2°C° 0 mm 1 mps 762 mmHg 89%
    05:00 -2°C° 0 mm 1 mps 762 mmHg 89%
    06:00 -2°C° 0 mm 1 mps 762 mmHg 90%
    07:00 -2°C° 0 mm 1 mps 762 mmHg 91%
    08:00 -1°C° 0 mm 1 mps 762 mmHg 90%
    09:00 -3°C° 0 mm 2 mps 763 mmHg 90%
    10:00 -2°C° 0 mm 2 mps 763 mmHg 89%
    11:00 -2°C° 0 mm 2 mps 763 mmHg 89%
    12:00 +1°C° 0 mm 1 mps 763 mmHg 89%
    13:00 +1°C° 0 mm 1 mps 762 mmHg 89%
    14:00 +1°C° 0 mm 1 mps 763 mmHg 91%
    15:00 +1°C° 0 mm 1 mps 763 mmHg 93%
    16:00 -2°C° 0 mm 2 mps 763 mmHg 95%
    17:00 0°C° 0 mm 1 mps 763 mmHg 95%
    18:00 0°C° 0 mm 1 mps 763 mmHg 96%
    19:00 +1°C° 0 mm 1 mps 763 mmHg 96%
    20:00 +1°C° 0 mm 1 mps 763 mmHg 96%
    21:00 -1°C° 0 mm 2 mps 763 mmHg 96%
    22:00 -1°C° 0 mm 2 mps 763 mmHg 96%
    23:00 -1°C° 0 mm 2 mps 763 mmHg 96%

    Day after tomorrow, 19 December, Wednesday

    Time Temperature Precipitation Wind Pressure Humidity
    00:00 -1°C° 0 mm 2 mps 763 mmHg 96%
    01:00 -1°C° 0 mm 2 mps 762 mmHg 96%
    02:00 -1°C° 0 mm 2 mps 762 mmHg 96%
    03:00 -1°C° 0 mm 2 mps 762 mmHg 95%
    04:00 -1°C° 0 mm 2 mps 762 mmHg 95%
    05:00 -2°C° 0 mm 3 mps 762 mmHg 94%
    06:00 -2°C° 0 mm 3 mps 762 mmHg 94%
    07:00 -2°C° 0 mm 3 mps 761 mmHg 93%
    08:00 -3°C° 0 mm 4 mps 761 mmHg 91%
    09:00 -3°C° 0 mm 4 mps 761 mmHg 89%
    10:00 -2°C° 0 mm 4 mps 761 mmHg 86%
    11:00 -2°C° 0 mm 4 mps 761 mmHg 84%
    12:00 -2°C° 0 mm 5 mps 761 mmHg 81%
    13:00 -2°C° 0 mm 5 mps 760 mmHg 78%
    14:00 -2°C° 0 mm 5 mps 760 mmHg 80%
    15:00 -4°C° 0 mm 5 mps 760 mmHg 81%
    16:00 -4°C° 0 mm 5 mps 759 mmHg 83%
    17:00 -4°C° 0 mm 5 mps 759 mmHg 83%
    18:00 -4°C° 0 mm 5 mps 759 mmHg 82%
    19:00 -4°C° 0 mm 5 mps 759 mmHg 82%
    20:00 -4°C° 0 mm 5 mps 759 mmHg 82%
    21:00 -4°C° 0 mm 5 mps 758 mmHg 81%
    22:00 -4°C° 0 mm 5 mps 758 mmHg 81%
    23:00 -3°C° 0 mm 4 mps 758 mmHg 81%

    20 December, Thursday

    Time Temperature Precipitation Wind Pressure Humidity
    00:00 -3°C° 0 mm 4 mps 758 mmHg 81%
    01:00 -3°C° 0 mm 4 mps 758 mmHg 80%
    02:00 -3°C° 0 mm 4 mps 758 mmHg 81%
    03:00 -3°C° 0 mm 4 mps 758 mmHg 81%
    04:00 -3°C° 0 mm 4 mps 757 mmHg 82%
    05:00 -3°C° 0.1 mm 4 mps 757 mmHg 82%
    06:00 -2°C° 0.1 mm 3 mps 757 mmHg 83%
    07:00 -2°C° 0.1 mm 3 mps 757 mmHg 83%
    08:00 -2°C° 0.1 mm 3 mps 757 mmHg 83%
    09:00 -2°C° 0.1 mm 3 mps 758 mmHg 82%
    10:00 -1°C° 0.1 mm 3 mps 758 mmHg 81%
    11:00 -1°C° 0 mm 3 mps 757 mmHg 80%
    12:00 -1°C° 0 mm 3 mps 757 mmHg 79%
    13:00 +1°C° 0 mm 2 mps 757 mmHg 78%
    14:00 -1°C° 0 mm 2 mps 757 mmHg 80%
    15:00 -1°C° 0 mm 3 mps 757 mmHg 81%
    16:00 -1°C° 0 mm 3 mps 757 mmHg 83%
    17:00 -1°C° 0 mm 3 mps 757 mmHg 84%
    18:00 -2°C° 0 mm 3 mps 757 mmHg 84%
    19:00 -2°C° 0 mm 3 mps 757 mmHg 85%
    20:00 -2°C° 0.1 mm 3 mps 757 mmHg 87%
    21:00 -2°C° 0.1 mm 3 mps 757 mmHg 89%
    22:00 -2°C° 0.1 mm 3 mps 756 mmHg 90%
    23:00 -2°C° 0.2 mm 3 mps 756 mmHg 91%

    21 December, Friday

    Time Temperature Precipitation Wind Pressure Humidity
    00:00 -2°C° 0.2 mm 3 mps 756 mmHg 93%
    01:00 -2°C° 0.2 mm 3 mps 756 mmHg 94%
    02:00 -2°C° 0.1 mm 3 mps 756 mmHg 94%
    03:00 -1°C° 0.1 mm 3 mps 755 mmHg 94%
    04:00 -1°C° 0.1 mm 3 mps 755 mmHg 94%
    05:00 -1°C° 0 mm 3 mps 755 mmHg 94%
    06:00 -1°C° 0 mm 3 mps 755 mmHg 94%
    07:00 -1°C° 0 mm 3 mps 754 mmHg 93%
    08:00 -1°C° 0 mm 3 mps 754 mmHg 92%
    09:00 0°C° 0 mm 3 mps 754 mmHg 91%
    10:00 -1°C° 0 mm 4 mps 753 mmHg 90%
    11:00 -1°C° 0.4 mm 4 mps 753 mmHg 91%
    12:00 -1°C° 0.4 mm 4 mps 753 mmHg 92%
    13:00 0°C° 0.4 mm 4 mps 752 mmHg 92%
    14:00 -1°C° 0.3 mm 4 mps 752 mmHg 93%
    15:00 0°C° 0.3 mm 3 mps 752 mmHg 94%
    16:00 0°C° 0.3 mm 3 mps 751 mmHg 95%
    17:00 0°C° 0 mm 3 mps 751 mmHg 94%
    18:00 0°C° 0 mm 3 mps 750 mmHg 94%
    19:00 0°C° 0 mm 3 mps 750 mmHg 94%
    20:00 0°C° 0.1 mm 3 mps 749 mmHg 94%
    21:00 0°C° 0.1 mm 3 mps 748 mmHg 93%
    22:00 0°C° 0.1 mm 3 mps 747 mmHg 93%
    23:00 0°C° 0.7 mm 3 mps 747 mmHg 94%

    22 December, Saturday

    Time Temperature Precipitation Wind Pressure Humidity
    00:00 0°C° 0.7 mm 3 mps 746 mmHg 94%
    01:00 0°C° 0.7 mm 3 mps 745 mmHg 95%
    02:00 0°C° 0.5 mm 3 mps 745 mmHg 95%
    03:00 0°C° 0.5 mm 4 mps 745 mmHg 96%
    04:00 0°C° 0.5 mm 4 mps 745 mmHg 96%
    05:00 +1°C° 0.3 mm 4 mps 745 mmHg 95%
    06:00 +1°C° 0.3 mm 5 mps 745 mmHg 94%
    07:00 +2°C° 0.3 mm 6 mps 745 mmHg 93%
    08:00 +2°C° 0.4 mm 6 mps 745 mmHg 92%
    09:00 +2°C° 0.4 mm 7 mps 744 mmHg 91%
    10:00 +3°C° 0.4 mm 7 mps 744 mmHg 90%
    11:00 +3°C° 0.4 mm 7 mps 744 mmHg 90%
    12:00 +3°C° 0.4 mm 7 mps 744 mmHg 91%
    13:00 +3°C° 0.4 mm 7 mps 744 mmHg 91%
    14:00 +2°C° 0.2 mm 7 mps 745 mmHg 91%
    15:00 +2°C° 0.2 mm 7 mps 745 mmHg 91%
    16:00 +1°C° 0.2 mm 6 mps 746 mmHg 92%
    17:00 +1°C° 0 mm 6 mps 747 mmHg 92%
    18:00 0°C° 0 mm 5 mps 748 mmHg 92%
    19:00 -1°C° 0 mm 5 mps 749 mmHg 92%
    20:00 -1°C° 0 mm 4 mps 750 mmHg 92%
    21:00 -1°C° 0 mm 4 mps 751 mmHg 93%
    22:00 0°C° 0 mm 3 mps 752 mmHg 93%
    23:00 0°C° 0 mm 3 mps 752 mmHg 93%
    Show more